Hays, KS

6:07 PM CDT on August 24, 2019 (GMT -0500)
Hays Regional

Weather History for KHYS - July, 2019

Change the Weather History Date:

Wednesday, July 17, 2019

  Actual Average Record
Temperature  
Mean Temperature 88 °F -  
Max Temperature 102 °F 91 °F 105 °F (2006)
Min Temperature 73 °F 65 °F 57 °F (2014)
Cooling Degree Days 22    
Growing Degree Days 38 (Base 50)    
Moisture  
Dew Point 66 °F    
Average Humidity 53    
Maximum Humidity 82    
Minimum Humidity 28    
Precipitation  
Precipitation 0.12 in - - ()
Sea Level Pressure  
Sea Level Pressure 29.75 in    
Wind  
Wind Speed 14 mph (South)    
Max Wind Speed 31 mph    
Max Gust Speed 43 mph    
Visibility 10 miles    
Events Thunderstorm    
Averages and records for this station are not official NWS values.
T = Trace of Precipitation, MM = Missing Value Source: NWS Daily Summary

Daily Weather History Graph

Daily Weather History Graph

Search for Another Location

Airport or City:

Astronomy

Jul. 17, 2019 Rise Set
Actual Time 6:25 AM CDT 9:00 PM CDT
Civil Twilight 5:54 AM CDT 9:31 PM CDT
Nautical Twilight 5:16 AM CDT 10:09 PM CDT
Astronomical Twilight 4:32 AM CDT 10:52 PM CDT
Moon 9:50 PM CDT (7/17) 6:59 AM CDT (7/17)
Length of Visible Light 15h 36m
Length of Day
14h 34m
Full, 99% of the Moon is Illuminated
Jul 17
Full
Jul 24
Last Quarter
Jul 31
New
Aug 7
First Quarter
Aug 15
Full

Hourly Weather History & Observations

Time (CDT) Temp. Heat Index Dew Point Humidity Pressure Visibility Wind Dir Wind Speed Gust Speed Precip Events Conditions
12:56 AM 75.9 °F - 69.1 °F 79% 29.83 in 10.0 mi SSE 6.9 mph - N/A   Clear
1:56 AM 75.9 °F - 69.1 °F 79% 29.80 in 10.0 mi SE 11.5 mph - N/A   Scattered Clouds
2:56 AM 75.0 °F - 69.1 °F 82% 29.79 in 10.0 mi SE 6.9 mph - N/A   Clear
3:56 AM 73.9 °F - 68.0 °F 82% 29.77 in 10.0 mi South 8.1 mph - N/A   Clear
4:56 AM 73.9 °F - 66.0 °F 76% 29.75 in 10.0 mi South 10.4 mph - N/A   Clear
5:56 AM 75.9 °F - 64.0 °F 67% 29.74 in 10.0 mi South 13.8 mph - N/A   Clear
6:56 AM 75.9 °F - 64.0 °F 67% 29.75 in 10.0 mi SSW 15.0 mph - N/A   Clear
7:17 AM 75.2 °F - 64.4 °F 69% 29.82 in 2.0 mi SSW 12.7 mph - N/A   Haze
7:27 AM 77.0 °F - 64.4 °F 65% 29.82 in 10.0 mi SSW 16.1 mph - N/A   Clear
7:56 AM 79.0 °F - 64.9 °F 62% 29.76 in 10.0 mi SSW 18.4 mph - N/A   Clear
8:56 AM 82.0 °F 84.1 °F 66.0 °F 58% 29.78 in 10.0 mi SSW 8.1 mph - N/A   Clear
9:56 AM 89.1 °F 91.3 °F 66.0 °F 46% 29.77 in 10.0 mi SW 15.0 mph - N/A   Clear
10:56 AM 93.0 °F 95.9 °F 66.0 °F 41% 29.75 in 10.0 mi SSW 21.9 mph 29.9 mph N/A   Clear
11:56 AM 97.0 °F 100.4 °F 66.0 °F 36% 29.74 in 10.0 mi SSW 19.6 mph - N/A   Clear
12:56 PM 100.0 °F 104.2 °F 66.0 °F 33% 29.74 in 10.0 mi SSW 19.6 mph 28.8 mph N/A   Clear
1:56 PM 100.9 °F 104.6 °F 64.9 °F 31% 29.71 in 10.0 mi South 29.9 mph 36.8 mph N/A   Clear
2:56 PM 102.0 °F 104.6 °F 63.0 °F 28% 29.70 in 10.0 mi South 31.1 mph 38.0 mph N/A   Clear
3:56 PM 102.0 °F 106.6 °F 66.0 °F 31% 29.70 in 10.0 mi SSW 27.6 mph 42.6 mph N/A   Clear
4:56 PM 102.0 °F 106.6 °F 66.0 °F 31% 29.68 in 10.0 mi SSW 26.5 mph 36.8 mph N/A   Clear
5:56 PM 100.9 °F 106.0 °F 66.9 °F 33% 29.68 in 10.0 mi South 23.0 mph 36.8 mph N/A   Clear
6:56 PM 99.0 °F 104.2 °F 68.0 °F 36% 29.68 in 10.0 mi South 23.0 mph 29.9 mph N/A   Clear
7:56 PM 96.1 °F 99.3 °F 66.0 °F 37% 29.69 in 10.0 mi South 18.4 mph 27.6 mph N/A   Clear
8:56 PM 91.0 °F 93.8 °F 66.0 °F 44% 29.69 in 10.0 mi SSE 13.8 mph - N/A   Clear
9:56 PM 88.0 °F 89.6 °F 64.9 °F 46% 29.71 in 10.0 mi SSE 11.5 mph - N/A   Clear
10:56 PM 87.1 °F 89.9 °F 66.9 °F 51% 29.74 in 10.0 mi South 15.0 mph - N/A   Clear
11:15 PM 87.8 °F 90.4 °F 66.2 °F 49% 29.85 in 10.0 mi SW 19.6 mph 31.1 mph N/A Thunderstorm Thunderstorm
11:56 PM 79.0 °F - 70.0 °F 74% 29.80 in 9.0 mi SW 5.8 mph - 0.12 in Thunderstorm Thunderstorm